Showing default

CENTISPACE-1 S15, 62584

Orbit data source: Space-Track

CENTISPACE-1 S15, 62584 is a payload satellite owned by Centispace (CN) in LEO that was launched on Mon, 13 Jan 2025 UTC via a JIELONG-3 launch vehicle from the Yellow Sea Launch Area, China (YSLA). Payloads include a variety of satellites, spacecraft, and rockets equipped with specific instruments for various scientific and technological missions. These include communications satellites like Starlink; space stations such as the ISS; scientific satellites like the Hubble; Earth observation satellites from companies like Planet Labs, Umbra, and HawkEye 360; GPS; miniature CubeSats for education and research; and military/defense satellites.

Loading next visibility...
CENTISPACE-1 S15 details
Identifier
62584, 2025-007K
Orbit
LEO
Last TLE update10 hours ago
Origin
Flag of CNCentispace (CN / PRC)
ManufacturerHITSAT
MissionOperational spacecraft
Bus & MotorWK01H, Unknown motor
Mass160 kg wet, 160 kg dry
Launch date (UTC)
2025-01-13 (1 month ago)
Launch vehicle
JIELONG-3
Launch site
Yellow Sea Launch Area, China (YSLA)
Object type
Payload
Rocket body
Debris
Shape & HBRUnknown
Radar Cross SectionMedium (>0.1 m² and <1 m²)

Expand to show TLE details & history

TLE from 10 hours ago
0 CENTISPACE-1 S15
1 62584U 25007K   25047.11639092  .00005484  00000-0  83060-3 0  9999
2 62584  54.9839 349.4894 0014443  15.6928 344.4516 14.75392334  5017
Epoch: 2025-02-16T02:47Z
Definitive object data (Epoch: 2025-02-16T02:47:36.175Z)
Latitude-0.00006°
Longitude161.23457°
Altitude635.204 km
Speed7.547 km/s
True Right ascension23h 17m 57s
True Declination0° 00' 00"
Sunlit
Object was in daylight at TLE epoch
Visualization TLE readout
Latitude39.15707°
Longitude-165.89093°
Altitude639.052 km
Speed7.548 km/s
Apparent Right ascension02h 27m 54s
Apparent Declination1° 56' 39"
Sunlit
Object is in daylight
Visualization observer readout
Local Sidereal Time15:33:05
Azimuth23.611° NE
Elevation-45.56°
Doppler factor1
Orbital elements
Apogee altitude654.014 km
Perigee altitude633.73 km
Semi-major axis7,022.009 km
Eccentricity0.0014443
Inclination54.9839°
RAAN349.4894°
Arg. of periapsis15.6928°
True anomaly344.40716°
Mean anomaly344.4516°
Eccentric anomaly344.42939°
Mean motion3.68851 °/min
BSTAR0.0008306
Orbital period97.6 mins
Loading maneuver chart data...
Loading historical data...
Loading historical data...
Loading historical data...
Loading historical data...
Loading historical data...
Loading historical data...
Loading historical data...

CENTISPACE-1 S15 Visibility forecast

Observer location: undefined°, undefined

Span
Click to sort rows by Start time (UTC) header in descending order
Start Az.
Max El. time (UTC)
Max El. Az.
Max El.
End time (UTC)
End Az.
7 mins2025-02-16 22:28:30.846Z220.015° SW2025-02-16 22:31:30.846Z191.42° SSW43.419°2025-02-16 22:35:30.846Z49.954° ENE
6 mins2025-02-17 00:11:30.846Z293.845° NW2025-02-17 00:13:30.846Z326.979° NNW21.366°2025-02-17 00:17:30.846Z27.115° NE
4 mins2025-02-17 03:38:30.846Z356.312° N2025-02-17 03:39:30.846Z11.638° NNE16.598°2025-02-17 03:42:30.846Z55.778° ENE
7 mins2025-02-17 05:19:30.846Z326.083° NNW2025-02-17 05:22:30.846Z53.512° ENE40.482°2025-02-17 05:26:30.846Z118.723° SE
5 mins2025-02-17 07:01:30.846Z267.751° W2025-02-17 07:03:30.846Z234.193° WSW19.949°2025-02-17 07:06:30.846Z190.442° SSW
|